Location: Rounton
(54.4000°N, 1.3500°W)
Time: 13:57:38
(UTC+01:00)

deb Delta 126 - Pass Details

Date: 06 July 2022
Orbit: 1120 x 1970 km, 101.5° (Epoch: 15 August)

Event Time Altitude Azimuth Distance (km) Brightness Sun altitude
Rises 00:34:05 0° 32° (NNE) 5,014 ? -12.5°
Reaches altitude 10° 00:37:37 10° 21° (NNE) 4,129 ? -12.6°
Maximum altitude 00:45:14 26° 332° (NNW) 3,214 ? -12.7°
Drops below altitude 10° 00:53:18 10° 283° (WNW) 4,394 ? -12.8°
Sets 00:57:13 0° 272° (W) 5,399 ? -12.8°
